Home   Weather   Waidhofen an der Thaya   Past weeks

Flag for Austria Past Weather in Waidhofen an der Thaya, Lower Austria, Austria — Yesterday and Last 2 Weeks

Now
58 °F

Cool.


Feels Like: 58 °F
Forecast: 52 / 62 °F
Wind: 1 mph from North

Location: Retz

Current Time: Oct 1, 2016 at 3:44:01 AM

Latest Report: Oct 1, 2016 at 3:00 AM


Visibility: N/A

Pressure: 29.95 "Hg (28.21 "Hg at 506m altitude)

Humidity: 71%

Dew Point: 49 °F

Location of Waidhofen an der ThayaLocation

Past Weather in Waidhofen an der Thaya — Graph

°F

Waidhofen an der Thaya Temperature Yesterday

Maximum temperature yesterday: 80 °F (at 3:00 PM)
Minimum temperature yesterday: 58 °F (at 6:00 AM)
Average temperature yesterday: 68 °F

High & Low Weather Summary for the Past Weeks

 TemperatureHumidityPressure
High80 °F (Sep 30, 3:00 PM)94% (Sep 17, 7:00 AM)30.37 "Hg (Sep 17, 7:00 AM)
Low45 °F (Sep 23, 6:00 AM)33% (Sep 30, 3:00 PM)29.74 "Hg (Sep 17, 3:00 AM)
Average61 °F67%30.08 "Hg
* Reported Sep 16 2:00 AM — Oct 1 2:00 AM, Waidhofen an der Thaya, Weather by CustomWeather, © 2016

Note: Actual official high and low records may vary slightly from our data, if they occured in-between our weather recording intervals... More about our weather records

Advertising

Waidhofen an der Thaya Weather History for the Previous 24 Hours

Scroll right to see more
 ConditionsComfort  
Time TempWeatherWind HumidityBarometerVisibility
2:00 AM
Sat, Oct 1
62 °FCool.1 mph63%29.95 "HgN/A
1:00 AM61 °FCool.3 mph66%29.97 "HgN/A
12:00 AM64 °FMild.1 mph63%29.96 "HgN/A
11:00 PM
Fri, Sep 30
66 °FMild.2 mph60%29.96 "HgN/A
10:00 PM67 °FMild.2 mph57%29.97 "HgN/A
9:00 PM68 °FMild.3 mph52%29.96 "HgN/A
8:00 PM69 °FMild.1 mph49%29.96 "HgN/A
7:00 PM72 °FMild.1 mph45%29.94 "HgN/A
6:00 PM75 °FMild.3 mph42%29.93 "HgN/A
5:00 PM78 °FPleasantly warm.3 mph39%29.93 "HgN/A
4:00 PM79 °FPleasantly warm.5 mph37%29.94 "HgN/A
3:00 PM80 °FPleasantly warm.2 mph33%29.95 "HgN/A
2:00 PM79 °FPleasantly warm.2 mph35%29.97 "HgN/A
1:00 PM78 °FPleasantly warm.3 mph36%29.99 "HgN/A
12:00 PM76 °FMild.3 mph40%30.01 "HgN/A
11:00 AM74 °FMild.2 mph42%30.03 "HgN/A
10:00 AM71 °FMild.5 mph51%30.03 "HgN/A
8:00 AM63 °FMild.7 mph62%30.02 "HgN/A
7:00 AM62 °FCool.8 mph65%30.01 "HgN/A
6:00 AM58 °FCool.2 mph74%30.02 "HgN/A
5:00 AM58 °FCool.2 mph76%30.03 "HgN/A
4:00 AM59 °FCool.5 mph74%30.03 "HgN/A
3:00 AM60 °FCool.2 mph70%30.04 "HgN/A
Weather by CustomWeather, © 2016

See weather overviewHow to use our weather pages